User: anonymous   Login
Location: Eurasberg
(48.3353°N, 11.0839°E)
Time: 08:23:13
(UTC+00:00)
Language:

Gblst 52 Del rocket - Orbit

View from above orbital plane
View from above orbital plane
View from above satellite
View from above satellite

Ground track
Ground track

The orbit is defined by the following mean orbital elements,

1 25774U          26074.92198405 +.00000000 +00000-0 +50189-4 0 00002
2 25774  51.5287 233.3864 0373944 262.8100 269.5520 13.46768211    01
Epoch (UTC): 15 March 2026 22:07:39
Eccentricity: 0.0373944
inclination: 51.5287°
perigee height: 805 km
apogee height: 1363 km
right ascension of ascending node: 233.3864°
argument of perigee: 262.8100°
revolutions per day: 13.46768211
mean anomaly at epoch: 269.5520°

The dashed part of the orbit path shows where the satellite is in the earth's shadow,  

DLR